Regional Weather Roundup
Issued by NWS Jackson, KY

Home | Current Version | Previous Version | Graphics & Text | Print | Product List | Glossary On
Versions: 1 2 3 4 5 6 7 8 9 10 11 12 13 14 15 16 17 18 19 20 21 22 23 24 25 26 27 28 29 30 31 32 33 34 35 36 37 38 39 40 41 42 43 44 45 46 47 48 49 50
000
ASUS43 KJKL 311311
RWRJKL

EAST KENTUCKY HOURLY WEATHER ROUNDUP
NATIONAL WEATHER SERVICE JACKSON KY
900 AM EDT THU JUL 31 2014

NOTE: "FAIR" INDICATES FEW OR NO CLOUDS BELOW 12,000 FEET WITH
NO SIGNIFICANT WEATHER AND/OR OBSTRUCTIONS TO VISIBILITY.

* THESE REPORTS ARE NOT UNDER NWS QUALITY CONTROL AND MAY NOT
  REPORT WEATHER SUCH AS PRECIPITATION AND FOG.

KYZ079-080-083-085-087-088-110-112-115-119-120-311400
...EASTERN KENTUCKY...

CITY           SKY/WX    TMP DP  RH WIND       PRES   REMARKS
JACKSON        SUNNY     64  59  83 CALM      30.15R
LONDON         MOSUNNY   64  60  87 CALM      30.14S
SOMERSET*      MOSUNNY   61  61 100 CALM      30.14S
MONTICELLO*    PTSUNNY   63  61  93 CALM      30.15R
WILLIAMSBURG*  CLOUDY    59  59 100 CALM      30.14S
MIDDLESBORO*   FOG       58  58 100 CALM      30.16S VSB 3/4
HARLAN APT*    CLOUDY    57  57 100 MISG      30.17R
BLACK MTN*       N/A     64  55  72 CALM        N/A
PIKEVILLE APT* MOSUNNY   61  59  94 S5        30.15S FOG
BIG SANDY*     SUNNY     66  60  81 CALM      30.14S
MOREHEAD APT*    N/A     64  61  88 CALM      30.14S
$$

KYZ035-036-041-042-044-050-067-078-099-311400
...CENTRAL KENTUCKY...

CITY           SKY/WX    TMP DP  RH WIND       PRES   REMARKS
MT STERLING*   SUNNY     64  61  88 CALM      30.14R
FLEMING/MASON* SUNNY     66  61  82 SW3       30.13S
DANVILLE*      SUNNY     64  61  88 CALM      30.13S
RICHMOND*      SUNNY     66  61  82 CALM      30.12S
LEXINGTON      SUNNY     68  60  75 CALM      30.12S
FRANKFORT      SUNNY     66  62  87 CALM      30.11R
$$

KYZ091>093-OHZ055-061-077-WVZ005-015-034-035-042-311400
...SOUTHERN OHIO/WEST VIRGINIA...

CITY           SKY/WX    TMP DP  RH WIND       PRES   REMARKS
COVINGTON      SUNNY     69  61  75 W5        30.10R
COLUMBUS       SUNNY     66  59  78 CALM      30.08S
DAYTON         SUNNY     67  61  81 W7        30.10R
WILMINGTON     SUNNY     66  61  84 SW6       30.10R
HUNTINGTON     SUNNY     62  60  93 SW5       30.12R
CHARLESTON     MOSUNNY   62  62 100 CALM      30.13R
PINEVILLE*     MOSUNNY   60  60 100 MISG      30.23S
BECKLEY        SUNNY     65  56  72 SW3       30.19S
BLUEFIELD      SUNNY     68  56  65 CALM      30.21S
$$

VAZ002-007-008-TNZ017-027-036-066-071-311400
...SOUTHWEST VIRGINIA/EAST TENNESSEE...

CITY           SKY/WX    TMP DP  RH WIND       PRES   REMARKS
WISE*          PTSUNNY   66  54  63 CALM      30.21R
JONESVILLE*    PTSUNNY   63  59  88 CALM      30.17S
ABINGDON*      PTSUNNY   64  58  81 E7        30.18S
BRISTOL        CLOUDY    62  57  83 CALM      30.16S
KNOXVILLE      CLOUDY    64  60  87 NE7       30.11R
OAK RIDGE      CLOUDY    64  63  96 CALM      30.13R
CROSSVILLE     CLOUDY    63  59  87 NE3       30.15R
NASHVILLE      CLOUDY    65  61  87 CALM      30.12R
$$

...KEY TO REMARKS...
VSB - VISIBILITY IN MILES
WCI - WIND CHILL INDEX
HX  - HEAT INDEX

$$


USA.gov is the U.S. government's official web portal to all federal, state and local government web resources and services.